DAIGW EDDH-HAM

Flight info

Callsign DAIGW
Flight time N/A
Altitude 6000
Route EDDH1C/05 HAM
Aircraft A343/H-SDE2E3FGHIJ4J5M1RWXY/LB1D1

Departure

Time 2026-05-07 12:52
Airport Hamburg Helmut Schmidt Airport (EDDH)

Arrival

Time N/A
Airport HAM
Time Latitude Longitude Altitude Speed Heading
2026-05-07 12:39 53.62672 9.99224 51 ft 0 kts 63°
2026-05-07 12:46 53.62667 9.99208 49 ft 4 kts 63°
2026-05-07 12:46 53.62655 9.99169 45 ft 2 kts 63°
2026-05-07 12:47 53.62647 9.99133 44 ft 4 kts 89°
2026-05-07 12:47 53.62653 9.99094 44 ft 4 kts 134°
2026-05-07 12:47 53.62674 9.99067 44 ft 4 kts 152°
2026-05-07 12:47 53.62679 9.99063 44 ft 0 kts 153°
2026-05-07 12:49 53.62670 9.99071 44 ft 5 kts 153°
2026-05-07 12:49 53.62617 9.99115 47 ft 12 kts 155°
2026-05-07 12:49 53.62561 9.99076 49 ft 8 kts 241°
2026-05-07 12:49 53.62544 9.98926 51 ft 20 kts 260°
2026-05-07 12:50 53.62515 9.98676 51 ft 24 kts 259°
2026-05-07 12:50 53.62484 9.98396 51 ft 25 kts 259°
2026-05-07 12:50 53.62441 9.98120 49 ft 24 kts 243°
2026-05-07 12:50 53.62331 9.97890 49 ft 27 kts 230°
2026-05-07 12:51 53.62207 9.97639 51 ft 28 kts 231°
2026-05-07 12:51 53.62236 9.97376 46 ft 27 kts 328°
2026-05-07 12:51 53.62323 9.97379 44 ft 0 kts 49°
2026-05-07 12:51 53.62382 9.97497 44 ft 46 kts 50°
2026-05-07 12:52 53.62761 9.98262 47 ft 120 kts 50°
2026-05-07 12:52 53.63401 9.99553 331 ft 155 kts 57°
2026-05-07 12:52 53.64088 10.01044 1050 ft 166 kts 56°